Other Public Products
Issued by NWS Grand Forks, ND

Home | Current Version | Previous Version | Graphics & Text | Print | Product List | Glossary On
Versions: 1 2 3 4 5 6 7 8 9 10 11 12 13 14 15 16 17 18 19 20 21 22 23 24 25 26 27 28 29 30 31 32 33 34 35 36 37 38 39 40 41 42 43 44 45 46 47 48 49 50
000
FPUS83 KFGF 262110
OPUFGF
PRAIRIE TO PINES WEATHER ROUNDUP
NATIONAL WEATHER SERVICE EASTERN NORTH DAKOTA/GRAND FORKS ND
300 PM CST THU FEB 26 2015

 **SATELLITE DATA USED TO AUGMENT SKY COVER AT AUTOMATED STATIONS**
 *****  WEATHER ACROSS EASTERN NORTH DAKOTA  *****

CITY           SKY/WX    TMP DP  RH WIND       PRES   REMARKS
GRAND FORKS    MOSUNNY    8  -4  58 NW12      30.53F WCI  -7
GRAND FORKS AF SUNNY      8  -6  52 N9        30.52F WCI  -5
GRAND CITY NWS   N/A     10 N/A N/A N10         N/A  WCI  -3
BUXTON         NOT AVBL
DEVILS LAKE    SUNNY    N/A N/A N/A MISG        N/A
FARGO          SUNNY      7  -5  57 N14       30.54F WCI -10
WAHPETON ARPT  MOCLDY     5  -6  61 NW12      30.53F WCI -11
$$

 *****  WEATHER ACROSS CENTRAL AND WESTERN NORTH DAKOTA  *****

CITY           SKY/WX    TMP DP  RH WIND       PRES   REMARKS
JAMESTOWN      SUNNY      3  -9  57 NW17      30.50F WCI -17
BISMARCK       SUNNY      9  -5  53 N15G21    30.54F WCI  -8
MINOT          SUNNY      5  -6  60 W15       30.52F WCI -13
MINOT AFB      SUNNY      4  -3  72 NW16      30.52F WCI -15
GARRISON         N/A      4  -4  69 NW17      30.51F WCI -16
WILLISTON      SUNNY      9  -4  55 NW6       30.55F WCI  -1
DICKINSON      SUNNY     10  -2  58 N10       30.44F WCI  -4
HETTINGER      SUNNY     10  -4  53 VRB6      30.45F WCI   0
$$

 *****  OTHER OBSERVATIONS NORTHEAST NORTH DAKOTA  *****

CITY           SKY/WX    TMP DP  RH WIND       PRES   REMARKS
WALHALLA         N/A      7  -4  61 NW12      30.52S WCI  -9
LANGDON        NOT AVBL
CAVALIER       FAIR       7  -4  61 NW12      30.52F WCI  -9
GRAFTON        NOT AVBL
CANDO          FAIR       3  -6  66 W14       30.50S WCI -15
FORT TOTTEN    NOT AVBL
ROLLA          FAIR       7  -6  56 NW17      30.46S WCI -12
RUGBY          FAIR       3  -6  66 NW16      30.51S WCI -16
 ***** THE ABOVE OBSERVATIONS ARE NON NWS ARE NOT QUALITY
        CONTROLLED AND MAY MIS-REPORT RAIN FOR SNOW...
$$

 *****  OTHER OBSERVATIONS SOUTHEAST NORTH DAKOTA *****

CITY           SKY/WX    TMP DP  RH WIND       PRES   REMARKS
COOPERSTOWN    NOT AVBL
VALLEY CITY    FAIR       3  -4  72 NW15      30.50F WCI -15
OAKES            N/A      3  -6  66 NW17      30.52F WCI -17
GWINNER        CLEAR      5  -6  61 NW15      30.53F WCI -13
SHEYENNE NWR     N/A      5 -10  51 NW10      29.95S WCI -10
BUFFALO        NOT AVBL
WYNDMERE         N/A      3  -8  60 NW12        N/A  WCI -13
 ***** THE ABOVE OBSERVATIONS ARE NON NWS ARE NOT QUALITY
       CONTROLLED AND MAY MIS-REPORT RAIN FOR SNOW...
$$

  *****  WEATHER ACROSS NORTHERN MINNESOTA  *****

CITY           SKY/WX    TMP DP  RH WIND       PRES   REMARKS
FLAG ISLAND    PTSUNNY    1  -6  71 S9        30.39F WCI -14
WARROAD        SUNNY      5  -8  56 SW12      30.42F WCI -11
ROSEAU         SUNNY      5  -8  56 W14       30.44F WCI -12
HALLOCK        NOT AVBL
THF RVR FALLS  SUNNY      1  -8  66 W10       30.48F WCI -14
HALSTAD        NOT AVBL
FOSSTON        SUNNY      3  -9  55 W8        30.47F WCI -10
BAUDETTE       SUNNY      4 -11  50 NW8       30.40F WCI  -9
WASKISH        SUNNY      3  -9  55 SW9       30.42F WCI -11
CROOKSTON      SUNNY      5  -2  72 NW14      30.53F WCI -12
$$
  *****  WEATHER ACROSS CENTRAL AND WEST MINNESOTA  *****

CITY           SKY/WX    TMP DP  RH WIND       PRES   REMARKS
BEMIDJI        SUNNY      1 -12  54 NW12      30.41F WCI -15
PARK RAPIDS    SUNNY      6 -10  47 NW10      30.40F WCI  -9
WADENA         SUNNY      3  -9  55 NW12      30.43S WCI -13
DETROIT LAKES  MOSUNNY    3  -4  72 N14       30.47F WCI -15
MOORHEAD       MOSUNNY    7  -2  66 N10       30.54F WCI  -8
FERGUS FALLS   MOSUNNY    3  -6  66 N14G22    30.53F HAZE    WCI -15
ELBOW LAKE     FAIR       3  -6  65 N15       30.48F WCI -16
MORRIS MN      MOSUNNY    3  -6  66 NW20      30.48F HAZE    WCI -18
STAPLES        SUNNY      5  -9  51 NW9       30.42F WCI  -9
WHEATON        MOSUNNY    1  -8  66 NW16      30.55F HAZE    WCI -18
$$
  *****  WEATHER ELSEWHERE ACROSS MINNESOTA  *****

CITY           SKY/WX    TMP DP  RH WIND       PRES   REMARKS
DULUTH         SUNNY      7 -11  43 NW12      30.31F WCI  -8
INTRNTL FALLS  SUNNY      3 -14  45 W9        30.38F WCI -12
ELY            SUNNY      5 -15  39 NW5       30.30F WCI  -4
CLOQUET        SUNNY      7 -11  43 NW13      30.34F WCI  -9
BRAINERD       SUNNY      6 -10  47 N12       30.41F WCI  -9
HIBBING        SUNNY      6 -10  47 NW14      30.35F WCI -11
ALEXANDRIA     SUNNY      2  -9  60 NW10      30.43F WCI -14
SAINT CLOUD    SUNNY      7  -8  50 NW10      30.43F WCI  -8
MINNEAPOLIS    MOSUNNY   10  -7  46 NW15      30.43F WCI  -7
$$

  *****  WEATHER ACROSS SOUTH DAKOTA  *****

CITY           SKY/WX    TMP DP  RH WIND       PRES   REMARKS
SIOUX FALLS    PTSUNNY    5  -5  63 NW16      30.48F WCI -14
BROOKINGS      NOT AVBL
WATERTOWN      PTSUNNY    2  -6  69 NW16      30.45F WCI -18
HURON          PTSUNNY    4  -5  66 NW13      30.55F WCI -13
SISSETON         N/A      3  -6  66 N17       30.52F WCI -17
ABERDEEN       SUNNY      6  -7  54 N15       30.55F WCI -12
MITCHELL       MOSUNNY    8  -4  58 N15G23    30.55S WCI  -9
PIERRE         SUNNY     12  -4  48 N13       30.51F WCI  -3
MOBRIDGE       SUNNY      9  -6  50 N12       30.50F WCI  -6
RAPID CITY     SUNNY      9  -2  61 N15       30.39F WCI  -8
$$

  *****  SOME WEATHER IN NEARBY STATES *****

CITY           SKY/WX    TMP DP  RH WIND       PRES   REMARKS
GLASGOW MT     SUNNY     10 -10  40 VRB3      30.50F
GREAT FALLS MT CLOUDY    14   8  77 E7        30.24F WCI   4
CHEYENNE WY    LGT SNOW  12   4  70 E8        30.08S VSB 1   WCI   0
SCOTTSBLUFF NE CLOUDY    17   3  54 VRB3      30.28F
OMAHA NE       FLURRIES  11   2  67 N20       30.51S WCI  -7
DES MOINES IA  PTSUNNY   10  -2  58 NW13      30.45S WCI  -5
DAVENPORT IA   PTSUNNY   12  -1  56 NW13      30.35R WCI  -3
CHICAGO IL     MOSUNNY   18   1  47 N16       30.26R WCI   3
EAU CLAIRE WI  SUNNY      9  -8  46 N7        30.38S WCI  -2
LA CROSSE WI   CLOUDY    13  -2  51 NW13      30.39S WCI  -2
$$

  *****  SOME NATIONAL WEATHER *****

CITY           SKY/WX    TMP DP  RH WIND       PRES   REMARKS
LA GUARDIA NY  CLOUDY    26  15  63 N8        29.98R WCI  18
RALEIGH NC     CLOUDY    35  28  75 N5        29.96R
ATLANTA GA     CLOUDY    38  31  76 NW13      30.00R
NEW ORLEANS LA PTSUNNY   47  36  65 N14       30.10R
OKLAHOMA CITY  PTSUNNY   29   2  31 N18       30.36S WCI  16
ALBUQUERQUE NM CLOUDY    42  23  46 E26       29.98F
SALT LAKE CITY FLURRIES  36  33  89 NW8       29.93F
LOS ANGELES CA PTSUNNY   63  53  70 W8        29.89F
BOISE ID       PTSUNNY   49  32  52 NW14      30.00F
SEATTLE WA     CLOUDY    51  46  83 W6        30.08F
$$

*** WEATHER ACROSS MANITOBA...SASKATCHEWAN AND ONTARIO ***
                ***ONTARIO***

CITY           SKY/WX    TMP DP  RH WIND       PRES   REMARKS
GERALDTON      SUNNY      1 -13  51 W12G20    30.14S WCI -15
THUNDER BAY    SUNNY      9  -9  43 NW12G18   30.29F WCI  -6
SIOUX LOOKOUT  MOSUNNY    5  -9  51 NW10G17   30.26F WCI -10
TORONTO        CLOUDY    12  -6  44 N10       30.14R WCI  -1
BIG TROUT LK   SUNNY      7  -6  56 NW16G23   30.10S WCI -11
PICKLE LAKE    MOSUNNY    5 -11  47 W14G22    30.15S WCI -12
DRYDEN         SUNNY      5  -8  56 W16       30.28F WCI -14
KENORA         MOSUNNY    7  -9  47 NW9       30.34F WCI  -7
$$
                *** MANITOBA***

CITY           SKY/WX    TMP DP  RH WIND       PRES   REMARKS
BRANDON        SUNNY      3  -8  60 W20       30.50F WCI -18
DAUPHIN        SUNNY      7  -4  61 W18       30.49F WCI -12
ISLAND LAKE    SUNNY      9  -8  47 W7        30.27S WCI  -3
PILOT MOUND      N/A      1  -9  60 W10         N/A  WCI -14
THE PAS        MOSUNNY   12  -6  44 NW12      30.44F WCI  -2
THOMPSON       PTSUNNY   14 -11  31 NW10G17   30.29F WCI   1
WINNIPEG       MOSUNNY    5  -8  56 NW14      30.50F WCI -12
LYNN LAKE      MOSUNNY   14  -9  34 W12G17    30.28F WCI   0
CHURCHILL      PTSUNNY    7  -6  56 NW16      30.05F WCI -11
GILLAM         PTSUNNY    9  -8  47 W14G22    30.19F WCI  -8
$$
                ***SASKATCHEWAN***

CITY           SKY/WX    TMP DP  RH WIND       PRES   REMARKS
ESTEVAN        SUNNY      0  -9  65 W13       30.55F WCI -18
KINDERSLEY     MOSUNNY    7  -4  61 S10       30.42F WCI  -8
LLOYDMINSTER   MOSUNNY    3  -8  60 S12       30.38F WCI -13
PRINCE ALBERT  MOSUNNY    7  -8  51 SW9       30.51F WCI  -7
REGINA         SUNNY     -2  -9  71 W5        30.55F WCI -12


USA.gov is the U.S. government's official web portal to all federal, state and local government web resources and services.